星链-6074 (STARLINK-6074 )

导读 | 豆包AI

STARLINK-6074是美国SpaceX公司星链星座中的一员,于2023年5月14日发射升空。作为低轨互联网通信卫星,它运行在近地轨道,配备相控阵天线与太阳能供电系统,依托星链全球组网架构,为地面用户提供高速低延迟的宽带互联网接入服务,助力实现全球无缝网络覆盖,尤其能为偏远基础设施缺失区域提供网络连接支持,属于星链二期组网的组成卫星,设计寿命约5-7年,退役后会脱轨焚毁保障空间安全。

基本信息
目录编号:
56553
目录名称:
STARLINK-6074
国际标识:
2023-065BC
轨道中心:
EARTH
卫星名称:
星链-6074
卫星全名:
星链-6074 (STARLINK-6074 )
卫星状态:
在轨 (已飞行1082 天)
发射日期:
2023-05-14 UTC
国别 :
美国 (US)
星等 :
--
轨道信息
数据来源 国际轨道数据
星历时间: 2026-04-30T05:11:46+0800
11小时前
查看轨道信息
半长轴: 6861.2km
偏心率: 0.0002025
轨道倾角: 43.004°
近地点辐角 270.141°
升交点赤经 294.281°
平近点角 89.921°
近地点: 481.673km
远地点: 484.453km
周期: 94.267分钟
每日圈数: 15.275755
详细信息
固有亮度:
5
最大亮度:
2.5
卫星平台:
Starlink v1.5
覆盖范围:
全球
运营商:
太空探索技术公司
运营商所在国:
美国
制造商(研发单位):
太空探索技术公司
制造商所在国:
美国
使用方式:
暂无
卫星简介
星链(Starlink)计划是由太空探索技术公司(SpaceX)提出的一个巨型低轨卫星互联网星座项目,计划在2019年至2024年间在太空搭建由约1.2万颗卫星组成的“星链”网络,其中1584颗将部署在地球上空550千米处的近地轨道,并从2020年开始工作。该卫星仍在工作。
2D轨道图
3D轨道图
轨道高度分析图
轨道倾角分析图
轨道综合分析图
查看轨道综合分析图